Location: B?a?ejowice
(50.4946°N, 18.5889°E)
Time: 07:04:34
(UTC+00:00)

Daily predictions for brighter satellites

Satellite Brightness Start Highest point End
(mag) Time Altitude Azimuth Time Altitude Azimuth Time Altitude Azimuth
Radarsat Rocket 4.2 15:17:17 10° SE 15:23:13 64° ENE 15:29:50 10° NNW
CZ-4B DEB 4.2 15:18:31 10° SSE 15:24:00 74° ENE 15:29:29 10° NNW
PSLV R/B 3.9 15:20:26 10° SSE 15:24:33 73° ENE 15:28:38 10° N
Sich 1 4.2 15:22:37 10° NNE 15:26:08 23° ENE 15:29:36 10° ESE
Cosmos 2333 Rocket 2.3 15:21:06 10° SSW 15:26:46 75° ESE 15:32:27 10° NNE
Nadezhda 1 Rocket 4.5 15:22:20 10° SSE 15:28:11 41° E 15:34:06 10° NNE
EP 1 4.4 15:26:39 10° SW 15:29:34 77° NW 15:32:10 10° NE
SJ-7 4.3 15:26:01 10° SSE 15:30:01 81° ENE 15:34:00 10° NNW
Cosmos 2315 Rocket 4.4 15:23:52 10° SSW 15:30:04 69° WNW 15:36:22 10° N
Cosmos 1606 4.5 15:28:08 10° ESE 15:30:19 15° E 15:32:30 10° NE
Cosmos 1125 Rocket 3.7 15:26:19 10° NNW 15:31:21 47° ENE 15:36:22 10° SE
Cosmos 1842 Rocket 3.6 15:27:50 10° S 15:32:05 58° E 15:36:21 10° NNE
COSMOS 2428 2.8 15:26:36 10° SSW 15:32:17 66° ESE 15:37:58 10° NE
Meteor 1-27 4.3 15:26:45 10° SSW 15:32:22 86° WNW 15:38:07 10° NNE
Okean O Rocket 2.0 15:28:27 10° SE 15:32:33 41° ENE 15:36:41 10° N
Cosmos 2208 Rocket 4.1 15:31:06 10° S 15:36:18 65° ESE 15:41:37 10° NNE
Cosmos 2278 Rocket 2.2 15:31:11 10° NNW 15:36:54 74° ENE 15:42:35 10° SE
Cosmos 1805 Rocket 4.2 15:32:56 10° N 15:37:04 35° ENE 15:41:10 10° SE
ISS -2.0 15:35:11 10° SSW 15:37:47 21° SE 15:40:23 10° E
MOS 1-B 4.4 15:32:09 10° SSE 15:37:57 88° ENE 15:43:49 10° NNW
Cosmos 2154 Rocket 4.1 15:32:25 10° N 15:38:41 59° ENE 15:44:56 10° SSE
Cosmos 482 Debris 2.7 15:39:18 10° WNW 15:41:05 46° N 15:42:26 15° ENE
USA 267 3.4 15:36:34 10° E 15:43:00 64° NNE 15:49:28 10° WNW
CZ-4B R/B 2.9 15:44:07 12° ENE 15:45:38 16° E 15:47:35 10° SE
Cosmos 2341 Rocket 4.4 15:41:32 10° N 15:47:23 39° ENE 15:53:15 10° SE
Cosmos 540 Rocket 3.6 15:42:16 10° SSW 15:47:25 78° WNW 15:52:34 10° NNE
Aureole 2 Rocket 4.1 15:45:01 10° NW 15:47:30 30° WSW 15:50:02 10° S
Cosmos 724 4.4 15:41:53 10° SSW 15:47:45 71° SE 15:53:48 10° NE
Cosmos 1862 3.3 15:44:44 10° N 15:48:47 70° ENE 15:52:48 10° SSE
Cosmos 2360 Rocket 3.3 15:44:41 10° WSW 15:49:57 40° NW 15:55:15 10° NNE
NOSS 0 Rocket 4.2 15:44:15 10° S 15:50:14 50° ESE 15:56:14 10° NE
SL-24 R/B - RUBIN 2 4.4 15:45:26 10° NW 15:51:55 88° NE 15:57:41 10° SE
Cosmos 2084 Rocket 4.4 15:49:47 10° WSW 15:53:41 40° NW 15:57:44 10° NE
NOAA 12 4.1 15:50:09 10° SSE 15:55:28 74° ENE 16:00:48 10° NNW
ERS-2 3.4 15:55:10 13° NE 15:57:36 22° E 16:00:32 10° SSE
Cosmos 2219 Rocket 2.4 15:52:21 10° SW 15:58:00 75° WNW 16:03:42 10° NNE
Landsat 5 3.6 15:55:00 10° NNE 15:59:21 88° ESE 16:03:50 10° SSW
Cosmos 841 Rocket 3.9 15:54:19 10° SW 15:59:31 66° WNW 16:04:44 10° NNE
CZ-2D R/B 4.4 15:58:41 10° ESE 16:01:41 23° ENE 16:04:44 10° NNE
CZ-4B R/B 3.1 15:57:48 10° SSE 16:03:10 90° E 16:08:31 10° NNW
Envisat 3.6 15:58:14 10° S 16:03:16 62° WSW 16:08:21 10° NNW
H-2A R/B 1.9 15:59:30 10° NNE 16:03:39 75° ESE 16:07:52 10° S
CZ-4 R/B 2.7 16:02:21 14° E 16:04:21 19° ENE 16:07:12 10° NNE
Cosmos 1980 Rocket 4.4 16:02:44 10° NW 16:04:33 11° NNW 16:06:23 10° N
Cosmos 2327 Rocket 4.5 15:58:45 10° N 16:04:55 87° E 16:11:08 10° S
SMAP 3.1 16:00:36 10° SSE 16:05:15 90° SW 16:09:57 10° NNW
SL-16 R/B 4.2 16:01:55 10° W 16:06:05 20° NW 16:10:16 10° NNE
Cosmos 2237 Rocket 2.4 16:02:03 10° S 16:07:27 50° ESE 16:12:36 11° NE
NOAA 11 4.1 16:04:41 10° SSE 16:10:03 67° ENE 16:15:28 10° N
FengYun 1-2 T 4.2 16:06:14 10° SSE 16:11:45 73° ENE 16:17:16 10° NNW
SL-8 Rocket 4.2 16:05:58 10° N 16:11:54 45° ENE 16:17:52 10° SE
GENESIS II 4.3 16:08:07 10° NW 16:12:06 81° SW 16:16:01 10° SE
Cosmos 1633 Rocket 3.6 16:10:03 10° N 16:14:04 34° ENE 16:18:03 10° SE
CREW DRAGON DEMO-1 DEB 2.7 16:11:20 10° WNW 16:14:19 87° SSW 16:16:01 23° ESE
H-2A R/B 3.1 16:11:48 12° ESE 16:15:28 23° ENE 16:19:29 10° N
Cosmos 1939 Rocket 3.1 16:12:59 10° SE 16:16:39 42° ENE 16:20:21 10° N
USA 281 3.4 16:11:13 10° SE 16:17:29 50° NE 16:23:48 10° NNW
Cosmos 2369 Rocket 3.3 16:13:28 10° NNW 16:18:09 25° NE 16:20:20 20° ENE
CORIOLIS 4.3 16:15:27 10° SSE 16:20:52 80° WSW 16:26:21 10° NNW
Cosmos 2181 Rocket 4.4 16:15:13 10° SSE 16:21:07 40° E 16:27:00 10° NNE
Meteor 2-12 Rocket 4.4 16:15:34 10° N 16:21:45 73° ENE 16:27:53 10° SSE
CSL-04 DEB 4.4 16:20:52 10° NNE 16:24:57 88° ESE 16:29:06 10° SSW
Cosmos 1980 3.7 16:19:55 10° SSW 16:25:34 72° ESE 16:30:35 14° NNE
Cosmos 2221 3.8 16:25:03 10° SW 16:29:11 42° WNW 16:33:19 10° N
ADEOS Rocket 4.4 16:34:44 10° N 16:42:00 52° WNW 16:49:27 10° SW
Cosmos 2297 3.6 16:38:21 10° NNW 16:44:02 71° ENE 16:49:44 10° SE
Cosmos 836 Rocket 4.4 16:39:36 10° SSW 16:44:53 78° ESE 16:48:59 17° NNE
YAOGAN 1 2.9 16:44:13 28° ESE 16:45:58 41° ENE 16:50:03 10° N
Cosmos 1943 Rocket 2.3 16:42:01 10° NNW 16:47:24 48° NE 16:50:06 27° ESE
Cosmos 389 Rocket 2.2 16:44:29 10° S 16:47:55 87° E 16:49:22 33° NNE
Cosmos 1470 Rocket 3.8 16:45:19 10° N 16:49:29 43° ENE 16:50:03 40° E
Cosmos 44 3.4 16:45:33 10° NW 16:50:48 72° NE 16:54:10 23° SE
USA 215 3.3 16:47:51 27° ENE 16:51:33 64° SE 16:58:02 10° SW
Cosmos 1933 3.3 16:48:30 10° S 16:52:28 61° E 16:53:49 38° NE
BREEZE-M DEB (TANK) 2.5 16:51:24 10° WSW 16:53:03 47° SSW 16:53:03 47° SSW
COSMO-SKYMED 1 2.5 16:52:06 25° NNE 16:54:34 65° ESE 16:58:52 10° S
Cosmos 2322 Rocket 4.5 16:51:29 10° WNW 16:54:35 15° NNW 16:57:41 10° N
SL-16 R/B 2.5 16:49:57 10° S 16:55:18 45° ESE 16:56:52 36° ENE
Cosmos 1867 3.7 16:50:24 10° SSW 16:55:39 51° ESE 16:57:16 38° ENE
CZ-2C R/B 2.9 16:51:09 10° SSE 16:56:11 60° ENE 17:01:01 10° N
CZ-4 R/B 4.3 16:52:28 10° SSE 16:56:37 82° ENE 17:00:47 10° NNW
ARGOS 3.7 16:57:00 36° ENE 16:57:02 36° ENE 17:01:56 10° N
Okean-O 2.5 16:53:03 10° SSE 16:57:25 63° ENE 17:01:49 10° N
Cosmos 2218 Rocket 3.8 16:51:34 10° N 16:57:45 77° E 17:03:53 10° SSE
PSLV R/B 4.1 17:00:30 49° ESE 17:00:30 49° ESE 17:04:05 10° S
Meteor 1-26 Rocket 4.4 16:54:45 10° S 17:00:33 53° E 17:05:33 14° NNE
Sich 1 4.2 16:59:50 10° NNW 17:04:03 45° W 17:08:12 10° SSW
Cosmos 1606 3.4 17:01:44 10° SSW 17:05:34 56° WNW 17:08:40 15° N
Cosmos 2366 rocket 3.9 17:02:35 10° N 17:08:52 87° E 17:15:02 10° S
Okean O Rocket 3.9 17:05:27 10° SSW 17:09:03 25° W 17:12:43 10° NW
DEBRIS 4.0 16:54:09 10° W 17:09:31 82° S 17:11:14 44° ESE
Helios 1A Rocket 2.7 17:07:32 22° SSE 17:10:06 83° ENE 17:14:09 10° NNW
Cosmos 2333 Rocket 3.9 17:06:50 10° W 17:11:37 27° NW 17:16:12 11° NNE
ISS -3.1 17:10:51 10° WSW 17:13:33 53° SW 17:13:33 53° SW
SAR-Lupe-4 3.6 17:15:58 74° WSW 17:15:58 74° WSW 17:19:22 10° SSW
COSMOS 2428 4.3 17:12:00 10° WSW 17:17:01 30° NW 17:21:31 12° NNE
CZ-4B R/B 2.9 17:17:16 28° NW 17:17:59 32° WNW 17:20:47 10° SW
Cosmos 1151 Rocket 2.9 17:18:28 10° SSW 17:22:46 82° W 17:23:24 63° N
USA 267 3.5 17:21:44 22° SE 17:26:05 64° SW 17:32:35 10° WNW
Cosmos 1328 Rocket 3.5 17:24:21 10° SSW 17:28:37 81° W 17:28:37 81° W
Lacrosse 5 rocket 3.4 17:27:15 10° SSW 17:28:08 16° SSW 17:28:08 16° SSW
ERS-2 3.7 17:29:46 24° NNW 17:31:13 33° WNW 17:34:33 10° SW
EO 1 Delta rocket 4.3 17:27:50 10° N 17:32:57 80° WNW 17:39:17 10° SSW
SL-24 R/B 4.3 17:32:45 59° NW 17:33:06 62° WNW 17:36:53 10° SSW
CSL-04 Debris 4.1 17:36:09 38° SSE 17:38:23 88° ENE 17:43:56 10° NNW
Meteor 1-5 Rocket 4.4 17:32:36 10° N 17:37:43 56° NE 17:37:43 56° NE
CZ-4 R/B 2.1 17:38:23 44° SW 17:39:03 50° W 17:42:57 10° NNW
Cosmos 2219 Rocket 4.3 17:38:49 10° W 17:42:57 20° NW 17:46:25 12° N
Cosmos 2237 Rocket 3.5 17:46:34 10° WSW 17:51:43 36° NW 17:54:26 23° N
H-2A R/B 2.3 17:52:26 38° S 17:54:28 67° WSW 17:59:41 10° NNW
Cosmos 773 Rocket 4.4 17:54:59 10° SSW 17:59:15 58° SW 17:59:15 58° SW
USA 281 4.3 17:55:56 10° S 18:02:06 43° WSW 18:08:19 10° NW
CSL-04 Rocket 3.9 18:01:44 62° SW 18:02:15 66° WSW 18:07:34 10° NNW
Cosmos 2369 Rocket 2.4 17:57:09 10° NNW 18:02:10 68° NW 18:02:10 68° NW
MOS 1 Rocket 3.9 18:03:47 65° NW 18:04:01 66° WNW 18:09:24 10° SSW
Cosmos 1821 Rocket 4.0 18:05:03 10° NNW 18:11:15 76° W 18:11:29 75° WSW
Cosmos 1943 Rocket 3.5 18:26:03 10° NW 18:31:00 34° WSW 18:31:41 33° WSW
USA 215 3.5 18:35:12 61° NW 18:35:12 61° NW 18:41:04 10° W
ARGOS 4.5 18:38:31 36° WNW 18:38:31 36° WNW 18:42:23 10° NNW
SL-16 R/B 3.4 18:34:13 10° WSW 18:38:47 38° WNW 18:38:47 38° WNW
